Regional Weather Roundup
Issued by NWS Pendleton, OR

Home | Current Version | Previous Version | Text Only | Print | Product List | Glossary On
Versions: 1 2 3 4 5 6 7 8 9 10 11 12 13 14 15 16 17 18 19 20 21 22 23 24 25 26 27 28 29 30 31 32 33 34 35 36 37 38 39 40 41 42 43 44 45 46 47 48 49 50
379
ASUS46 KPDT 240010
RWRPDT
PENDLETON REGIONAL WEATHER ROUNDUP
NATIONAL WEATHER SERVICE PENDLETON OREGON
400 PM PST MON JAN 23 2017

NOTE: FAIR INDICATES FEW OR NO CLOUDS BELOW 12,000 FEET WITH NO
SIGNIFICANT WEATHER AND/OR OBSTRUCTIONS TO VISIBILITY.

# INDICATES UNOFFICIAL STATION AND DATA

WAZ520-240110-
EAST SLOPES OF WASHINGTON CASCADES

CITY            SKY/WX      TMP DP  RH  WIND    PRES   REMARKS
#CLE ELUM HS    N/A         37  32  82  CALM    29.76
#CLE ELUM LAKE  N/A         34  32  92  CALM    29.87R
#GLENWOOD       N/A         34  33  96  CALM    29.88
#MANASTASH CYN  N/A         29  24  81  CALM    29.77S
#NELSON 3SW     N/A         26  25  96  CALM    30.09
#NILE           N/A         29  27  92  NE1     29.13
#RONALD 2NW     N/A         30  N/A N/A CALM    29.65S
#TROUT LAKE 1NE N/A         33  31  92  CALM    29.87
#TROUT LAKE 1E  N/A         34  32  92  CALM    29.83
$$

WAZ521-240110-
SIMCOE HIGHLANDS

CITY            SKY/WX      TMP DP  RH  WIND    PRES   REMARKS
#BICKLETON HS   N/A         30  23  75  W3      29.44S
#CENTERVILLE 1SWN/A         28  26  92  CALM    29.90
#GOLDENDALE 1NE N/A         31  29  92  CALM    N/A
#GOLDENDALE 4W  N/A         30  20  66  CALM    29.87S
#GOODNOE HILLS  N/A         33  27  78  CALM    N/A
#LYLE 6NE       N/A         30  29  96  CALM    29.87
#PITT 4SE       N/A         29  28  96  CALM    29.93
$$

WAZ026-240110-
KITTITAS VALLEY

CITY            SKY/WX      TMP DP  RH  WIND    PRES   REMARKS
ELLENSBURG AP   CLEAR       31  25  78  E5      29.81
6HR MIN TEMP:   29; 6HR MAX TEMP:   36;

#ELLENSBURG CWU N/A         32  28  85  NE2     29.83
#ELLENSBURG 3NE N/A         28  25  88  CALM    27.90
#KITTITAS 4N    N/A         30  26  85  E1      29.85R
#KITTITAS 3S    N/A         29  26  88  CALM    29.87
#THORP 6N       N/A         27  25  92  E3      29.91
$$

WAZ027-240110-
YAKIMA VALLEY

CITY            SKY/WX      TMP DP  RH  WIND    PRES   REMARKS
SUNNYSIDE AP    CLOUDY      31  29  92  CALM    29.88
6HR MIN TEMP:   31; 6HR MAX TEMP:   32;

YAKIMA AIRPORT  CLOUDY      37  30  75  CALM    29.86
6HR MIN TEMP:   30; 6HR MAX TEMP:   39;

YAKIMA-VAGABOND CLEAR       33  28  82  S3      29.83
6HR MIN TEMP:   30; 6HR MAX TEMP:   35;

#DONALD 2NE     N/A         32  21  63  SW1     28.72S
#MABTON         N/A         34  32  92  NE1     29.87
#NACHES 2SW     N/A         34  29  82  W1      29.81
#TERRACE HTS    N/A         32  30  92  CALM    29.88
#TOPPENISH      N/A         32  31  96  CALM    29.84
#WEST VALLEY    N/A         35  30  82  CALM    29.89
#W YAKIMA       N/A         34  30  85  CALM    29.90S
#WHITE SWAN 5E  N/A         33  31  92  CALM    29.92
#WILEY CITY 3W  N/A         32  23  69  CALM    29.80
$$

WAZ028-240110-
LOWER COLUMBIA BASIN...WASHINGTON

CITY            SKY/WX      TMP DP  RH  WIND    PRES   REMARKS
HANFORD         CLOUDY      35  32  89  SE2     29.85
6HR MIN TEMP:   32; 6HR MAX TEMP:   36;

PASCO           CLOUDY      35  32  89  CALM    29.90
6HR MIN TEMP:   32; 6HR MAX TEMP:   35;

PROSSER AWOS    N/A         34  34  100 CALM    29.92R
RICHLAND AWOS   CLOUDY      35  33  92  CALM    29.90
#BENTON CITY    N/A         33  31  92  CALM    29.82
#CONNELL 5N     N/A         34  32  92  CALM    29.88
#CONNELL 5NW    N/A         33  31  92  W3      29.85
#ELTOPIA 6NW    N/A         33  32  96  CALM    28.83
#KAHLOTUS       N/A         32  31  96  NW6     29.88
#KENNEWICK 3S   N/A         33  32  96  CALM    29.92
#PATERSON       N/A         32  31  96  CALM    29.91
#SAGEMOOR 2W    N/A         33  30  89  SW1     29.75
#TOUCHET 2S     N/A         33  32  96  CALM    29.90
#WEST PASCO     N/A         36  35  96  CALM    29.87
$$

WAZ029-240110-
FOOTHILLS OF THE BLUES...WASHINGTON

CITY            SKY/WX      TMP DP  RH  WIND    PRES   REMARKS
WALLA WALLA AP  CLOUDY      31  29  92  SW5     29.85  FOG
#CLYDE 6NW      N/A         30  29  96  CALM    29.88
#DAYTON SCHOOL  N/A         29  24  81  SW2     29.85
#LOWDEN 2SE     N/A         33  32  96  CALM    29.85
#PLEASANT VIEW 1N/A         29  28  96  CALM    29.93
#PRESCOTT       N/A         32  31  96  CALM    29.90
#WHITMAN COLLEGEN/A         32  31  96  S1      29.96
#WAITSBURG 5S   N/A         29  28  96  S3      29.99
#WAITSBURG 8N   N/A         29  N/A N/A S6      29.68S
#WALLA WALLA 5E N/A         32  31  96  W1      N/A
#WHITMAN MISSIONN/A         33  32  96  CALM    29.92
$$

WAZ030-240110-
BLUE MOUNTAINS...WASHINGTON

CITY            SKY/WX      TMP DP  RH  WIND    PRES   REMARKS
#DIXIE 5SE      N/A         23  20  88  SW1     29.68
$$

ORZ009-041-WAZ024-240110-
COLUMBIA RIVER GORGE

CITY            SKY/WX      TMP DP  RH  WIND    PRES   REMARKS
HOOD RIVER AP   CLOUDY      36  34  92  CALM    29.89
THE DALLES AP   CLOUDY      35  32  89  E6      29.91
6HR MIN TEMP:   33; 6HR MAX TEMP:   37; 6HR PCP:  0.01;

#ARLINGTON AIRPON/A         31  31  100 CALM    29.94R
#ARLINGTON HS   N/A         35  32  89  CALM    29.82
#CELILO DOT     N/A         36  29  75  E2      N/A
#LYLE           N/A         37  33  85  SE7     29.93
#MOSIER 1S      N/A         36  32  85  CALM    29.85S
#MURDOCK        N/A         36  32  85  E1      29.89S
#RUFUS DOT      N/A         35  33  92  VRB9    N/A
#SMITHVILLE     N/A         35  32  89  N5      29.85R

$$

ORZ510-240110-
NORTH CENTRAL OREGON

CITY            SKY/WX      TMP DP  RH  WIND    PRES   REMARKS
#ANTELOPE       N/A         33  30  89  CALM    29.75
#CHENOWITH 1W   N/A         29  29  100 E10     N/A
#COW CYN RST AREN/A         33  N/A N/A N3      N/A
#DUFUR 9E       N/A         29  28  96  CALM    29.94
#GRASS VALLEY 1SN/A         29  28  96  CALM    29.76
#KENT DOT       N/A         32  27  82  N1      N/A
#MAUPIN SCHOOL  N/A         39  34  82  CALM    29.89
#SHANIKO 5WSW   N/A         30  26  85  N6      N/A
#SHANIKO 4NW    N/A         28  28  100 N6      29.73
#TYGH VALLEY 2NEN/A         39  33  79  CALM    29.88
#WAPANITIA AIRPON/A         33  31  92  CALM    29.91
#WASCO DOT      N/A         33  28  82  E5      N/A
#WASCO AIRPORT  N/A         30  28  92  E5      N/A
#WASCO 5NE      N/A         29  27  92  CALM    29.92
$$

ORZ511-240110-
CENTRAL OREGON

CITY            SKY/WX      TMP DP  RH  WIND    PRES   REMARKS
BEND AIRPORT    CLEAR       34  25  69  CALM    29.74
MADRAS AIRPORT  PTCLDY      34  30  85  MISG    29.81
PRINEVILLE AP   PTCLDY      32  27  82  W5      29.75S
REDMOND AIRPORT CLEAR       36  25  64  N5      29.76
6HR MIN TEMP:   30; 6HR MAX TEMP:   38;

#ASHWOOD SCHOOL N/A         37  31  79  CALM    29.76
#BEND 1SW       N/A         30  26  85  CALM    N/A
#BEND-AWBREY    N/A         34  27  75  CALM    29.86R
#BEND-KIM LN    N/A         36  28  72  N2      29.80
#CULVER         N/A         35  29  78  CALM    29.78
#CULVER 8W      N/A         35  24  64  CALM    29.82R
#LAKE BILLY CHINN/A         36  N/A N/A CALM    29.90
#MADRAS 4S      N/A         36  -3  18  NE6     29.87S
#POWELL BUTTE   N/A         36  24  61  NW2     29.74R
#PRINEVILLE 3N  N/A         36  30  79  CALM    29.84S
#WARM SPRINGS   N/A         38  33  82  CALM    29.79

$$


ORZ509-240110-
EAST SLOPES OF OREGON CASCADES

CITY            SKY/WX      TMP DP  RH  WIND    PRES   REMARKS
SISTERS AWOS    N/A         37  28  70  CALM    29.75
#BLUE BOX PASS  N/A         31  N/A N/A S1      N/A
#CAMP SHERMAN   N/A         35  26  69  CALM    29.88
#LA PINE DOT    N/A         35   9  33  NW2     N/A
#LA PINE 4NW    N/A         33  21  61  CALM    29.88
#LAVA BUTTE DOT N/A         30  19  63  CALM    N/A
#SISTERS ODOT   N/A         36  N/A N/A CALM    N/A
#SISTERS 3N     N/A         33  22  63  N3      29.76S
#SUNRIVER       N/A         33  25  72  N2      29.87
#SUTTLE LK DOT  N/A         28  26  92  N3      N/A
#TUMALO 3W      N/A         35  27  72  CALM    29.72
#WANOGA BUTTE D N/A         23  22  96  E8      N/A

$$

ORZ044-240110-
LOWER COLUMBIA BASIN...OREGON

CITY            SKY/WX      TMP DP  RH  WIND    PRES   REMARKS
HERMISTON       CLOUDY      33  32  96  CALM    29.88  FOG
6HR MIN TEMP:   31; 6HR MAX TEMP:   33;

#BOARDMAN SCHOOLN/A         34  32  92  CALM    29.90
#BOARDMAN 8SW   N/A         33  32  96  CALM    29.92S
#ECHO 8SW       N/A         32  32  100 CALM    29.90
#I-84 EX 198 DOTN/A         31  31  100 N2      N/A
#UMATILLA       N/A         33  30  89  CALM    29.85
$$

ORZ507-240110-
NORTHERN FOOTHILLS OF THE BLUES

CITY            SKY/WX      TMP DP  RH  WIND    PRES   REMARKS
PENDLETON AIRPT CLOUDY      30  30  100 S5      29.83
6HR MIN TEMP:   29; 6HR MAX TEMP:   30; 6HR PCP:  TRACE;

#ADAMS 3WNW     N/A         29  27  92  CALM    29.89
#ATHENA         N/A         29  28  96  CALM    29.91
#CAYUSE         N/A         30  28  92  CALM    29.88
#HELIX SCHOOL   N/A         30  29  96  CALM    29.90
#HELIX 3N       N/A         29  28  96  CALM    29.80
#HOLDMAN 5SE    N/A         30  29  96  CALM    29.80
#HOLDMAN 6E     N/A         29  28  96  CALM    29.70
#M-F GROVE ELEM N/A         31  29  92  CALM    29.83
#PENDLETON DNTN N/A         33  29  85  CALM    29.86
#PDT AQUATIC CTRN/A         32  32  100 SE2     29.84
#PDT SUNRIDGE   N/A         31  29  92  CALM    29.86
#PENDLETON 7NW  N/A         32  28  85  CALM    32.00
#PILOT ROCK     N/A         31  26  81  SW2     29.86S
#TUTUILLA       N/A         32  29  89  CALM    29.89
#UMAPINE 2E     N/A         33  32  96  CALM    29.85
#WESTON SCHOOL  N/A         29  26  88  CALM    29.73

$$

ORZ508-240110-
SOUTHERN FOOTHILLS OF THE BLUES

CITY            SKY/WX      TMP DP  RH  WIND    PRES   REMARKS
#AJAX           N/A         29  23  78  CALM    27.59
#CONDON SCHOOL  N/A         30  29  96  N2      29.75
#CONDON 5W      N/A         28  26  92  NE1     29.73
#FOSSIL SCHOOL  N/A         33  31  92  W3      29.74
#HEPPNER EOC    N/A         29  27  92  CALM    29.83
#HEPPNER 4NE    N/A         27  25  92  CALM    29.88
#LEXINGTON 2SE  N/A         32  29  89  CALM    29.81
#MIKKALO        N/A         31  29  92  CALM    29.95
#OLEX 4N        N/A         31  30  96  CALM    29.85
#RUGGS 5NE      N/A         28  27  96  CALM    29.94
#RUGGS 2SW      N/A         27  25  92  N1      29.90

$$

ORZ502-503-240110-
BLUE MOUNTAINS

CITY            SKY/WX      TMP DP  RH  WIND    PRES   REMARKS
MEACHAM         CLOUDY      27  21  78  CALM    29.72
6HR MIN TEMP:   22; 6HR MAX TEMP:   31;

#BATTLE MTN DOT N/A         25  23  92  N2      N/A
#GREENHORN 9SW  N/A         30  25  81  CALM    25.92
#HEPPNER 15SE   N/A         28  23  81  CALM    25.27
#LADD CYN SMT   N/A         31  19  61  NW10    N/A
#LADD CREEK ODOTN/A         35  20  54  NE7     N/A
#LONG CREEK HS  N/A         31  29  92  VRB7    N/A
#N POWDER DOT   N/A         N/A N/A N/A N12     N/A
#PIKES PEAK     N/A         23  20  88  CALM    27.99
#TOLLGATE       N/A         24  22  92  CALM    29.57
#TROY SCHOOL    N/A         34  27  75  CALM    29.71
#UKIAH          N/A         25  24  96  CALM    29.86
#WESTON 4E      N/A         25  24  96  CALM    29.85
$$

ORZ505-240110-
JOHN DAY BASIN

CITY            SKY/WX      TMP DP  RH  WIND    PRES   REMARKS
JOHN DAY        MOCLDY      33  28  82  W9      29.72
#ANTELOPE 9ESE  N/A         37  34  89  CALM    N/A
#DAYVILLE SCHOOLN/A         36  26  67  NW5     29.74
#MITCHELL       N/A         33  32  96  CALM    29.95
#MITCHELL 8NW   N/A         30  28  92  CALM    29.68
#MONUMENT HS    N/A         37  26  64  CALM    29.75
#MT. VERNON 5SE N/A         31  25  78  W2      29.66
#SPRAY SCHOOL   N/A         38  N/A N/A CALM    N/A
$$

ORZ506-240110-
OCHOCO AND JOHN DAY HIGHLANDS

CITY            SKY/WX      TMP DP  RH  WIND    PRES   REMARKS
#HORSE RIDGE DO N/A         32  22  66  W3      N/A
#KEYES SMT DOT  N/A         28  24  85  W13     N/A    WCI 17
#PAULINA SCHOOL N/A         33  27  78  SW6     N/A
#PINE MTN OBS   N/A         24  22  92  CALM    N/A
#PRAIRIE CITY   N/A         31  20  63  CALM    29.86
#SENECA         N/A         28  N/A N/A N2      N/A
#SENECA 9NW     N/A         29  24  81  CALM    29.91
$$

ORZ049-240110-
GRANDE RONDE VALLEY

CITY            SKY/WX      TMP DP  RH  WIND    PRES   REMARKS
LA GRANDE       CLOUDY      34  27  75  W15     29.71  WCI 24
#COVE           N/A         30  27  88  CALM    29.76
#COVE 6NW       N/A         31  27  85  W8      29.83
#ELGIN 3N       N/A         31  22  69  CALM    29.72
#ELGIN 1E       N/A         31  25  78  CALM    N/A
#IMBLER SCHOOL  N/A         29  25  85  N2      29.71
#ISLAND CITY 4N N/A         50  42  74  CALM    29.84
#LADD CYN DOT   N/A         36  24  61  NW6     N/A
#UNION 1S       N/A         33  28  82  N7      29.81
$$

ORZ050-240110-
WALLOWA COUNTY

CITY            SKY/WX      TMP DP  RH  WIND    PRES   REMARKS
JOSEPH AIRPORT  PTCLDY      23  19  84  CALM    29.70
#IMNAHA SCHOOL  N/A         36  29  75  N6      29.76
#IMNAHA 10S     N/A         34  26  72  CALM    29.72
#JOSEPH 3N      N/A         17  10  73  CALM    29.75
#JOSEPH 3W      N/A         26  17  68  CALM    29.57S
#LOSTINE        N/A         23  18  81  CALM    29.70
#LOSTINE 3SE    N/A         24  21  88  S1      29.76
#MT HOWARD 8000 N/A         14  11  88  N2      29.52
#PROMISE 1S     N/A         29  27  92  CALM    29.94
#WALLOWA SCHOOL N/A         22  18  84  CALM    29.73



$$



USA.gov is the U.S. government's official web portal to all federal, state and local government web resources and services.